GW2254 Weather Reports


time (UTC)temp
F
wind
direction
speed
knots
gust
knots
rain 1hr
in
rain 24hr
in
rain mn
in
humidity
%
barometer
mb
20260505095549 59 184 0.9 6.1 0.00 0.00 0.00 66 1014.8
20260505095047 59 193 2.6 7.8 0.00 0.00 0.00 66 1014.6
20260505094548 59 202 1.7 7.8 0.00 0.00 0.00 66 1014.6
20260505094047 59 360 0.9 7.0 0.00 0.00 0.00 66 1014.7
20260505093547 59 360 2.6 7.0 0.00 0.00 0.00 66 1014.6
20260505093057 60 212 1.7 5.2 0.00 0.00 0.00 66 1014.6
20260505092546 60 360 0.0 5.2 0.00 0.00 0.00 66 1014.6
20260505092044 60 233 0.0 4.3 0.00 0.00 0.00 65 1014.7
20260505091543 60 189 1.7 4.3 0.00 0.00 0.00 65 1014.7
20260505091044 60 192 0.9 4.3 0.00 0.00 0.00 65 1014.6
20260505090542 60 203 0.0 4.3 0.00 0.00 0.00 65 1014.5
20260505090042 60 203 0.0 4.3 0.00 0.00 0.00 65 1014.5
20260505085542 60 201 1.7 4.3 0.00 0.00 0.00 64 1014.4
20260505085041 61 181 0.9 5.2 0.00 0.00 0.00 64 1014.5
20260505084541 61 187 1.7 7.8 0.00 0.00 0.00 64 1014.4
20260505084039 61 196 3.5 7.8 0.00 0.00 0.00 64 1014.4
20260505083539 61 219 0.9 5.2 0.00 0.00 0.00 64 1014.5
20260505083041 61 175 1.7 6.1 0.00 0.00 0.00 64 1014.4
20260505082539 61 183 2.6 6.1 0.00 0.00 0.00 64 1014.4
20260505082039 61 190 0.9 5.2 0.00 0.00 0.00 64 1014.5
20260505081544 61 196 0.0 6.1 0.00 0.00 0.00 64 1014.5
20260505081038 61 174 1.7 6.1 0.00 0.00 0.00 63 1014.5
20260505080540 61 187 0.9 7.8 0.00 0.00 0.00 63 1014.4
20260505080047 61 153 1.7 7.8 0.00 0.00 0.00 63 1014.3
20260505075538 61 171 1.7 7.0 0.00 0.00 0.00 63 1014.2
20260505075035 61 196 1.7 6.1 0.00 0.00 0.00 63 1014.2
20260505074535 61 199 0.9 7.8 0.00 0.00 0.00 63 1014.2
20260505074035 61 163 2.6 7.0 0.00 0.00 0.00 63 1014.2
20260505073534 61 180 1.7 8.7 0.00 0.00 0.00 63 1014.1
20260505073038 62 195 3.5 8.7 0.00 0.00 0.00 63 1013.9
20260505072532 62 197 2.6 7.0 0.00 0.00 0.00 62 1013.9
20260505072032 62 187 1.7 7.0 0.00 0.00 0.00 62 1013.9
20260505071532 62 196 2.6 6.1 0.00 0.00 0.00 62 1013.9
20260505071032 62 209 1.7 5.2 0.00 0.00 0.00 62 1013.9
20260505070531 62 215 0.9 7.0 0.00 0.00 0.00 62 1013.9
20260505070030 62 221 1.7 8.7 0.00 0.00 0.00 62 1013.9
20260505065529 62 182 2.6 8.7 0.00 0.00 0.00 61 1013.9
20260505065027 63 205 1.7 7.0 0.00 0.00 0.00 61 1013.8
20260505064526 63 200 2.6 10.4 0.00 0.00 0.00 61 1013.7
20260505064026 63 217 3.5 10.4 0.00 0.00 0.00 61 1013.8
20260505063529 63 214 4.3 9.6 0.00 0.00 0.00 61 1013.8
20260505063025 63 197 2.6 8.7 0.00 0.00 0.00 61 1013.9
20260505062524 63 218 3.5 8.7 0.00 0.00 0.00 60 1013.9
20260505062023 63 185 1.7 7.8 0.00 0.00 0.00 60 1014.0
20260505061525 64 202 2.6 7.8 0.00 0.00 0.00 60 1014.0
20260505061021 64 210 1.7 8.7 0.00 0.00 0.00 60 1014.0
20260505060521 64 183 3.5 13.0 0.00 0.00 0.00 59 1014.0
20260505060021 64 178 3.5 13.0 0.00 0.00 0.00 59 1014.0
20260505055520 64 189 2.6 10.4 0.00 0.00 0.00 59 1014.0
20260505055019 64 204 4.3 12.2 0.00 0.00 0.00 59 1014.0
20260505054518 64 221 4.3 12.2 0.00 0.00 0.00 59 1014.0
20260505054017 64 254 4.3 10.4 0.00 0.00 0.00 59 1014.0
20260505053516 64 211 2.6 8.7 0.00 0.00 0.00 59 1014.1
20260505053030 64 240 2.6 8.7 0.00 0.00 0.00 59 1014.1
20260505052516 64 188 3.5 8.7 0.00 0.00 0.00 59 1014.1
20260505052017 64 199 4.3 10.4 0.00 0.00 0.00 59 1014.1
20260505051533 64 198 2.6 10.4 0.00 0.00 0.00 59 1014.1
20260505051014 64 194 2.6 8.7 0.00 0.00 0.00 59 1014.1
20260505050513 64 198 3.5 9.6 0.00 0.00 0.00 59 1014.2
20260505041509 65 234 6.1 10.4 0.00 0.00 0.00 58 1014.2
20260505041005 65 263 0.9 9.6 0.00 0.00 0.00 58 1014.2
20260505040508 65 211 3.5 7.8 0.00 0.00 0.00 58 1014.1
20260505040004 65 198 1.7 7.8 0.00 0.00 0.00 58 1014.0
20260505035505 65 215 0.9 7.8 0.00 0.00 0.00 57 1013.9
20260505035002 65 204 2.6 9.6 0.00 0.00 0.00 57 1014.0
20260505034503 65 225 5.2 9.6 0.00 0.00 0.00 57 1014.0
20260505034006 66 198 4.3 7.0 0.00 0.00 0.00 56 1013.9
20260505033502 66 223 2.6 7.8 0.00 0.00 0.00 56 1013.9
20260505033004 66 207 3.5 7.8 0.00 0.00 0.00 55 1013.9
20260505032502 66 229 4.3 8.7 0.00 0.00 0.00 55 1013.9
20260505032002 66 190 2.6 9.6 0.00 0.00 0.00 55 1013.8
20260505031501 66 224 3.5 12.2 0.00 0.00 0.00 54 1013.8
20260505031001 66 208 5.2 12.2 0.00 0.00 0.00 54 1013.8
20260505030503 66 211 2.6 7.8 0.00 0.00 0.00 53 1013.8
20260505025601 66 227 4.3 8.7 0.00 0.00 0.00 52 1013.7
20260505025102 65 213 2.6 9.6 0.00 0.00 0.00 51 1013.6
20260505024559 65 122 2.6 6.1 0.00 0.00 0.00 50 1013.6
20260505024059 64 232 2.6 9.6 0.00 0.00 0.00 50 1013.6
20260505023559 64 360 1.7 3.5 0.00 0.00 0.00 51 1013.5
20260505023105 64 204 0.0 5.2 0.00 0.00 0.00 52 1013.4
20260505022559 64 198 1.7 5.2 0.00 0.00 0.00 50 1013.4
20260505022059 64 196 0.0 2.6 0.00 0.00 0.00 52 1013.3
20260505021600 64 196 1.7 2.6 0.00 0.00 0.00 51 1013.3
20260505021059 64 201 0.0 2.6 0.00 0.00 0.00 51 1013.1
20260505020559 64 201 0.0 1.7 0.00 0.00 0.00 52 1013.1
20260505020059 64 201 0.0 2.6 0.00 0.00 0.00 51 1013.2
20260505015559 64 200 0.0 4.3 0.00 0.00 0.00 53 1013.2
20260505015058 64 207 0.9 4.3 0.00 0.00 0.00 51 1013.2
20260505014606 64 195 0.0 2.6 0.00 0.00 0.00 52 1013.2
20260505014058 64 195 0.0 2.6 0.00 0.00 0.00 51 1013.1
20260505013559 64 196 0.0 0.9 0.00 0.00 0.00 52 1013.1
20260505013059 64 196 0.0 0.0 0.00 0.00 0.00 53 1013.1
20260505012557 65 196 0.0 0.0 0.00 0.00 0.00 54 1013.1
20260505012057 65 360 0.0 0.9 0.00 0.00 0.00 52 1013.0
20260505011558 65 196 0.0 0.9 0.00 0.00 0.00 50 1013.0
20260505011057 65 196 0.0 0.0 0.00 0.00 0.00 49 1012.9
20260505010559 66 196 0.0 0.0 0.00 0.00 0.00 48 1013.0
20260505010116 66 196 0.0 0.0 0.00 0.00 0.00 49 1013.0
20260505005557 66 196 0.0 0.0 0.00 0.00 0.00 49 1013.0
20260505005057 67 196 0.0 0.0 0.00 0.00 0.00 48 1013.0
20260505004556 67 196 0.0 0.0 0.00 0.00 0.00 46 1012.9
20260505004056 68 196 0.0 0.0 0.00 0.00 0.00 46 1012.9
20260505003555 69 196 0.0 0.0 0.00 0.00 0.00 45 1012.9
20260505003058 69 196 0.0 0.0 0.00 0.00 0.00 44 1012.9
20260505002555 70 360 0.0 0.0 0.00 0.00 0.00 43 1012.8
20260505002056 70 360 0.0 0.0 0.00 0.00 0.00 42 1012.8
20260505001557 71 196 0.0 0.0 0.00 0.00 0.00 41 1012.7
20260505001057 71 196 0.0 0.9 0.00 0.00 0.00 40 1012.7
20260505000555 71 196 0.0 1.7 0.00 0.00 0.00 40 1012.5
20260505000055 72 209 0.0 1.7 0.00 0.00 0.00 39 1012.5
20260504235555 72 234 0.0 0.9 0.00 0.00 0.00 39 1012.5
20260504235054 72 184 0.0 2.6 0.00 0.00 0.00 38 1012.5
20260504234554 73 184 0.0 2.6 0.00 0.00 0.00 38 1012.6
20260504234054 73 182 0.0 4.3 0.00 0.00 0.00 39 1012.6
20260504233554 73 178 0.0 4.3 0.00 0.00 0.00 38 1012.5
20260504233056 73 188 0.9 4.3 0.00 0.00 0.00 37 1012.5
20260504232553 74 204 0.0 4.3 0.00 0.00 0.00 36 1012.4
20260504232053 74 193 1.7 4.3 0.00 0.00 0.00 36 1012.4
20260504231557 74 212 1.7 5.2 0.00 0.00 0.00 36 1012.3
20260504231052 74 200 1.7 5.2 0.00 0.00 0.00 36 1012.3
20260504230554 74 195 0.0 5.2 0.00 0.00 0.00 36 1012.3
20260504230052 75 208 1.7 4.3 0.00 0.00 0.00 35 1012.3
20260504225552 75 214 0.9 5.2 0.00 0.00 0.00 35 1012.2
20260504225055 75 188 1.7 9.6 0.00 0.00 0.00 34 1012.1
20260504224551 75 231 4.3 9.6 0.00 0.00 0.00 34 1012.1
20260504224051 75 211 2.6 6.1 0.00 0.00 0.00 34 1012.1
20260504223551 75 188 2.6 7.8 0.00 0.00 0.00 34 1012.1
20260504223100 75 127 2.6 5.2 0.00 0.00 0.00 33 1012.2
20260504222555 76 220 1.7 6.1 0.00 0.00 0.00 33 1012.1
20260504222050 76 190 0.9 8.7 0.00 0.00 0.00 33 1012.2
20260504221602 76 214 1.7 7.0 0.00 0.00 0.00 32 1012.1
20260504221049 76 226 0.0 7.8 0.00 0.00 0.00 32 1012.1
20260504220549 76 219 3.5 7.8 0.00 0.00 0.00 32 1012.2
20260504220049 76 240 1.7 12.2 0.00 0.00 0.00 34 1012.2
20260504215548 76 223 4.3 12.2 0.00 0.00 0.00 30 1012.1
20260504215050 76 248 1.7 7.8 0.00 0.00 0.00 31 1012.1
20260504214554 77 192 2.6 8.7 0.00 0.00 0.00 32 1012.1
20260504214048 77 182 3.5 9.6 0.00 0.00 0.00 31 1012.1
20260504213547 77 202 5.2 9.6 0.00 0.00 0.00 29 1012.1
20260504213100 77 196 2.6 7.0 0.00 0.00 0.00 30 1012.1
20260504212548 77 165 0.9 7.0 0.00 0.00 0.00 32 1012.2
20260504212048 77 195 3.5 7.8 0.00 0.00 0.00 30 1012.2
20260504211550 77 238 0.9 7.8 0.00 0.00 0.00 31 1012.1
20260504211047 77 207 1.7 12.2 0.00 0.00 0.00 30 1012.2
20260504210547 77 194 4.3 12.2 0.00 0.00 0.00 30 1012.1
20260504210047 78 200 3.5 7.8 0.00 0.00 0.00 30 1012.2
20260504205547 78 243 0.9 9.6 0.00 0.00 0.00 31 1012.2
20260504205045 78 189 0.9 10.4 0.00 0.00 0.00 30 1012.2
20260504204550 78 197 2.6 7.8 0.00 0.00 0.00 29 1012.2
20260504204047 78 186 3.5 8.7 0.00 0.00 0.00 29 1012.1
20260504203545 79 194 5.2 8.7 0.00 0.00 0.00 29 1012.2
20260504203050 79 179 4.3 7.8 0.00 0.00 0.00 28 1012.2
20260504202545 79 182 2.6 7.8 0.00 0.00 0.00 27 1012.2
20260504202044 80 215 4.3 7.8 0.00 0.00 0.00 26 1012.3
20260504201544 80 194 3.5 7.8 0.00 0.00 0.00 25 1012.3
20260504201047 81 190 2.6 7.8 0.00 0.00 0.00 26 1012.3
20260504200543 81 217 2.6 7.0 0.00 0.00 0.00 26 1012.4
20260504200042 81 355 0.0 3.5 0.00 0.00 0.00 27 1012.4
20260504195541 81 360 0.9 3.5 0.00 0.00 0.00 28 1012.6
20260504195039 80 215 0.9 2.6 0.00 0.00 0.00 27 1012.7
20260504194543 80 259 0.9 6.1 0.00 0.00 0.00 27 1012.7
20260504194037 79 188 0.9 2.6 0.00 0.00 0.00 28 1012.9
20260504193538 79 135 0.9 2.6 0.00 0.00 0.00 28 1012.9
20260504193036 78 335 0.0 7.0 0.00 0.00 0.00 28 1013.0
20260504192535 77 184 1.7 7.8 0.00 0.00 0.00 27 1013.1
20260504192037 77 189 3.5 9.6 0.00 0.00 0.00 26 1013.2
20260504191539 77 209 4.3 9.6 0.00 0.00 0.00 26 1013.3
20260504191033 77 234 2.6 9.6 0.00 0.00 0.00 26 1013.3
20260504190533 77 338 1.7 9.6 0.00 0.00 0.00 27 1013.4
20260504190033 77 217 4.3 11.3 0.00 0.00 0.00 25 1013.4
20260504185532 77 223 0.9 10.4 0.00 0.00 0.00 28 1013.6
20260504185035 77 250 2.6 9.6 0.00 0.00 0.00 25 1013.7
20260504184531 77 190 1.7 13.9 0.00 0.00 0.00 27 1013.7
20260504184033 77 205 6.1 13.9 0.00 0.00 0.00 26 1013.7
20260504183531 77 205 0.9 7.8 0.00 0.00 0.00 27 1013.7
20260504183030 77 219 3.5 11.3 0.00 0.00 0.00 27 1013.7
20260504182528 77 179 4.3 8.7 0.00 0.00 0.00 27 1013.9
20260504182028 77 190 0.9 9.6 0.00 0.00 0.00 31 1014.0
20260504181527 77 241 1.7 9.6 0.00 0.00 0.00 28 1013.9
20260504181029 78 178 0.0 5.2 0.00 0.00 0.00 29 1014.1
20260504180527 78 200 0.9 4.3 0.00 0.00 0.00 29 1014.1
20260504180026 77 187 0.0 3.5 0.00 0.00 0.00 30 1014.1
20260504175528 77 19 0.0 2.6 0.00 0.00 0.00 28 1014.2
20260504175025 78 19 0.9 2.6 0.00 0.00 0.00 27 1014.3
20260504174524 78 288 0.0 1.7 0.00 0.00 0.00 27 1014.3
20260504174024 78 288 0.9 2.6 0.00 0.00 0.00 28 1014.3
20260504173524 78 267 0.9 6.1 0.00 0.00 0.00 27 1014.3
20260504173023 78 327 1.7 6.1 0.00 0.00 0.00 27 1014.3
20260504172522 78 185 0.9 4.3 0.00 0.00 0.00 27 1014.4
20260504172021 78 224 1.7 10.4 0.00 0.00 0.00 27 1014.5
20260504171529 77 184 1.7 10.4 0.00 0.00 0.00 29 1014.5
20260504171020 78 249 3.5 9.6 0.00 0.00 0.00 25 1014.6
20260504170519 77 349 2.6 7.8 0.00 0.00 0.00 29 1014.6
20260504151056 72 223 0.9 7.0 0.00 0.00 0.00 41 1016.0
20260504150557 72 228 2.6 7.0 0.00 0.00 0.00 39 1015.9
20260504150109 71 9 0.0 7.0 0.00 0.00 0.00 41 1016.1
20260504141042 67 213 0.0 2.6 0.00 0.00 0.00 46 1016.1
20260504140541 67 325 0.0 4.3 0.00 0.00 0.00 48 1016.2
20260504130527 61 274 0.0 7.0 0.00 0.00 0.00 55 1016.5
20260504110511 49 217 0.0 0.0 0.00 0.00 0.00 71 1016.7
20260504100557 49 217 0.0 0.0 0.00 0.00 0.00 69 1016.7